JST820 YSSY-YBBN

Flight info

Callsign JST820
Flight time N/A
Altitude 35000
Route KEVIN7/16L OLSEM Y193 BANDA H252 GOMOL GOMOL4X
Aircraft A320/M-VGDW/C

Departure

Time 2026-05-01 12:02
Airport Sydney Kingsford Smith International Airport (YSSY)

Arrival

Time N/A
Airport Brisbane International Airport (YBBN)
Time Latitude Longitude Altitude Speed Heading
2026-05-01 11:44 -33.93546 151.17826 30 ft 0 kts 174°
2026-05-01 11:54 -33.93549 151.17826 30 ft 1 kts 174°
2026-05-01 11:54 -33.93565 151.17826 30 ft 4 kts 185°
2026-05-01 11:55 -33.93598 151.17822 30 ft 6 kts 187°
2026-05-01 11:55 -33.93647 151.17814 30 ft 8 kts 189°
2026-05-01 11:55 -33.93713 151.17797 30 ft 11 kts 190°
2026-05-01 11:55 -33.93818 151.17779 21 ft 20 kts 188°
2026-05-01 11:56 -33.93962 151.17795 22 ft 21 kts 168°
2026-05-01 11:56 -33.94112 151.17832 23 ft 23 kts 168°
2026-05-01 11:56 -33.94270 151.17874 25 ft 24 kts 167°
2026-05-01 11:56 -33.94403 151.17909 24 ft 15 kts 167°
2026-05-01 11:57 -33.94508 151.17884 25 ft 17 kts 188°
2026-05-01 11:57 -33.94588 151.17899 28 ft 18 kts 168°
2026-05-01 11:57 -33.94763 151.17945 23 ft 21 kts 168°
2026-05-01 11:57 -33.94921 151.17985 22 ft 23 kts 168°
2026-05-01 11:58 -33.95023 151.18011 25 ft 15 kts 168°
2026-05-01 11:58 -33.95089 151.18040 30 ft 16 kts 138°
2026-05-01 11:58 -33.95056 151.18368 25 ft 13 kts 78°
2026-05-01 11:59 -33.95043 151.18441 27 ft 14 kts 77°
2026-05-01 11:59 -33.95022 151.18557 26 ft 15 kts 78°
2026-05-01 11:59 -33.95005 151.18657 25 ft 13 kts 78°
2026-05-01 12:00 -33.94997 151.18706 24 ft 0 kts 79°
2026-05-01 12:00 -33.94997 151.18707 24 ft 1 kts 79°
2026-05-01 12:00 -33.94989 151.18763 25 ft 6 kts 88°
2026-05-01 12:01 -33.95001 151.18819 25 ft 8 kts 120°
2026-05-01 12:01 -33.95056 151.18858 23 ft 11 kts 168°
2026-05-01 12:01 -33.95140 151.18878 25 ft 14 kts 167°
2026-05-01 12:01 -33.95393 151.18941 23 ft 72 kts 168°
2026-05-01 12:02 -33.96085 151.19121 29 ft 129 kts 167°
2026-05-01 12:02 -33.97108 151.19400 164 ft 162 kts 171°
2026-05-01 12:02 -33.98205 151.19785 718 ft 167 kts 154°
2026-05-01 12:02 -33.99058 151.20720 1252 ft 170 kts 118°
2026-05-01 12:03 -33.99657 151.22082 1541 ft 195 kts 115°
2026-05-01 12:03 -34.00320 151.23549 2068 ft 202 kts 115°
2026-05-01 12:03 -34.01191 151.24972 2432 ft 223 kts 135°
2026-05-01 12:03 -34.02428 151.26183 3033 ft 234 kts 138°
2026-05-01 12:04 -34.03702 151.27417 3737 ft 241 kts 138°
2026-05-01 12:04 -34.05043 151.28726 4310 ft 258 kts 138°
2026-05-01 12:04 -34.06476 151.30128 4990 ft 269 kts 138°
2026-05-01 12:04 -34.07946 151.31562 5826 ft 275 kts 138°
2026-05-01 12:05 -34.09449 151.33030 6610 ft 281 kts 138°
2026-05-01 12:05 -34.11959 151.36593 8123 ft 282 kts 100°
2026-05-01 12:05 -34.11905 151.38917 8897 ft 278 kts 68°
2026-05-01 12:06 -34.10885 151.40875 9679 ft 278 kts 47°
2026-05-01 12:06 -34.09569 151.42620 10364 ft 287 kts 46°
2026-05-01 12:06 -34.08186 151.44433 10836 ft 299 kts 46°
2026-05-01 12:06 -34.06710 151.46220 11470 ft 303 kts 37°
2026-05-01 12:07 -34.04838 151.47447 11937 ft 316 kts 18°
2026-05-01 12:07 -34.02702 151.48178 12302 ft 329 kts 15°
2026-05-01 12:07 -34.00468 151.48896 12923 ft 335 kts 15°
2026-05-01 12:07 -33.98201 151.49617 13568 ft 339 kts 15°
2026-05-01 12:08 -33.95895 151.50353 14205 ft 345 kts 15°
2026-05-01 12:08 -33.93568 151.51103 14750 ft 349 kts 15°
2026-05-01 12:08 -33.91212 151.51872 15346 ft 352 kts 15°
2026-05-01 12:08 -33.88840 151.52654 15947 ft 355 kts 16°
2026-05-01 12:09 -33.86447 151.53441 16523 ft 358 kts 16°
2026-05-01 12:09 -33.84029 151.54233 17107 ft 361 kts 15°
2026-05-01 12:09 -33.81591 151.55028 17699 ft 364 kts 16°
2026-05-01 12:09 -33.79132 151.55830 18287 ft 368 kts 16°
2026-05-01 12:10 -33.76649 151.56641 18844 ft 371 kts 16°
2026-05-01 12:10 -33.71616 151.58285 19883 ft 378 kts 15°
2026-05-01 12:10 -33.69063 151.59115 20426 ft 381 kts 15°
2026-05-01 12:11 -33.64035 151.61107 21449 ft 388 kts 30°
2026-05-01 12:11 -33.61754 151.62857 21948 ft 391 kts 32°
2026-05-01 12:11 -33.59464 151.64659 22442 ft 395 kts 33°
2026-05-01 12:12 -33.57159 151.66481 22929 ft 398 kts 32°
2026-05-01 12:12 -33.54831 151.68317 23424 ft 402 kts 32°
2026-05-01 12:12 -33.52476 151.70166 23906 ft 405 kts 32°
2026-05-01 12:12 -33.50088 151.71981 24310 ft 408 kts 27°
2026-05-01 12:13 -33.47444 151.73203 24704 ft 409 kts 14°
2026-05-01 12:13 -33.44693 151.74096 25104 ft 412 kts 14°
2026-05-01 12:13 -33.41918 151.74992 25511 ft 414 kts 14°
2026-05-01 12:13 -33.39130 151.75891 25907 ft 416 kts 14°
2026-05-01 12:14 -33.36360 151.76784 26293 ft 418 kts 14°
2026-05-01 12:14 -33.33539 151.77691 26676 ft 421 kts 14°
2026-05-01 12:14 -33.30704 151.78608 27049 ft 423 kts 14°
2026-05-01 12:14 -33.27850 151.79535 27414 ft 426 kts 14°
2026-05-01 12:15 -33.24976 151.80463 27772 ft 428 kts 14°
2026-05-01 12:15 -33.22092 151.81390 28113 ft 431 kts 14°
2026-05-01 12:15 -33.19184 151.82323 28470 ft 433 kts 14°
2026-05-01 12:15 -33.16260 151.83262 28834 ft 435 kts 14°
2026-05-01 12:16 -33.13328 151.84205 29183 ft 438 kts 14°
2026-05-01 12:16 -33.10379 151.85155 29532 ft 440 kts 15°
2026-05-01 12:16 -33.07411 151.86111 29889 ft 442 kts 15°
2026-05-01 12:16 -33.04432 151.87068 30229 ft 445 kts 15°
2026-05-01 12:17 -33.01431 151.88032 30546 ft 447 kts 14°
2026-05-01 12:17 -32.98417 151.88997 30826 ft 450 kts 14°
2026-05-01 12:17 -32.95387 151.89969 31085 ft 452 kts 14°
2026-05-01 12:17 -32.92338 151.90945 31364 ft 454 kts 14°
2026-05-01 12:18 -32.89292 151.91918 31747 ft 454 kts 14°
2026-05-01 12:18 -32.86234 151.92896 32115 ft 454 kts 14°
2026-05-01 12:18 -32.83229 151.93860 32480 ft 454 kts 14°
2026-05-01 12:18 -32.80177 151.94837 32876 ft 453 kts 14°
2026-05-01 12:19 -32.77136 151.95809 33267 ft 453 kts 14°
2026-05-01 12:19 -32.74093 151.96779 33644 ft 453 kts 14°
2026-05-01 12:19 -32.71053 151.97742 34029 ft 453 kts 14°
2026-05-01 12:19 -32.68004 151.98706 34384 ft 453 kts 13°
2026-05-01 12:20 -32.64960 151.99672 34686 ft 453 kts 13°
2026-05-01 12:20 -32.61910 152.00643 34981 ft 454 kts 13°
2026-05-01 12:20 -32.58850 152.01618 35261 ft 454 kts 13°
2026-05-01 12:20 -32.55799 152.02592 35535 ft 454 kts 13°
2026-05-01 12:21 -32.52741 152.03566 35804 ft 455 kts 13°
2026-05-01 12:21 -32.49679 152.04537 36071 ft 455 kts 13°
2026-05-01 12:21 -32.46623 152.05505 36331 ft 455 kts 13°
2026-05-01 12:21 -32.43555 152.06475 36592 ft 456 kts 13°
2026-05-01 12:22 -32.40530 152.07430 36841 ft 456 kts 13°
2026-05-01 12:22 -32.37468 152.08399 37088 ft 456 kts 13°
2026-05-01 12:22 -32.34394 152.09374 37305 ft 457 kts 13°
2026-05-01 12:22 -32.31316 152.10349 37374 ft 458 kts 13°
2026-05-01 12:23 -32.25139 152.12294 37378 ft 459 kts 13°
2026-05-01 12:23 -32.18961 152.14238 37377 ft 460 kts 13°
2026-05-01 12:24 -32.12770 152.16185 37377 ft 460 kts 13°
2026-05-01 12:24 -32.06574 152.18134 37378 ft 460 kts 13°
2026-05-01 12:25 -31.97321 152.21029 37376 ft 461 kts 13°
2026-05-01 12:26 -31.91111 152.22970 37377 ft 461 kts 13°
2026-05-01 12:26 -31.81800 152.25880 37374 ft 462 kts 13°
2026-05-01 12:27 -31.72474 152.28791 37373 ft 462 kts 13°
2026-05-01 12:28 -31.63135 152.31690 37376 ft 463 kts 13°
2026-05-01 12:29 -31.53821 152.34594 37378 ft 463 kts 13°
2026-05-01 12:29 -31.44454 152.37499 37382 ft 464 kts 13°
2026-05-01 12:30 -31.35080 152.40390 37383 ft 464 kts 13°
2026-05-01 12:31 -31.28820 152.42309 37386 ft 465 kts 13°
2026-05-01 12:31 -31.22606 152.44226 37385 ft 465 kts 13°
2026-05-01 12:32 -31.16354 152.46155 37382 ft 465 kts 13°
2026-05-01 12:32 -31.06954 152.49046 37381 ft 466 kts 13°
2026-05-01 12:33 -31.00679 152.50974 37379 ft 466 kts 13°
2026-05-01 12:33 -30.94411 152.52900 37376 ft 466 kts 13°
2026-05-01 12:34 -30.88138 152.54816 37375 ft 466 kts 12°
2026-05-01 12:34 -30.81852 152.56725 37374 ft 467 kts 13°
2026-05-01 12:35 -30.75593 152.58756 37374 ft 467 kts 15°
2026-05-01 12:35 -30.69424 152.61047 37376 ft 468 kts 16°
2026-05-01 12:36 -30.63230 152.63397 37376 ft 468 kts 16°
2026-05-01 12:36 -30.57014 152.65672 37376 ft 468 kts 15°
2026-05-01 12:37 -30.50784 152.67906 37377 ft 468 kts 15°